Temperature
15 15 15 15 15 15 15 15 15 14 13 13 13 13 13 13 13 13 13 13 13 13 13 13 13 13 13 13 13 13 13 13 13 13 12 12 12 12
15 15 15 15 15 15 15 15 14 14 13 13 13 13 13 13 13 13 13 13 13 13 13 13 13 13 13 13 13 13 13 12 12 12 12 12 12 12
15 15 15 15 15 15 14 14 14 14 14 13 13 13 13 13 12 12 12 13 12 13 13 13 13 13 13 13 13 12 12 12 12 12 12 12 12 12
15 15 15 15 14 14 14 14 14 14 14 13 13 13 12 12 12 12 12 12 12 12 12 12 12 12 12 12 12 12 12 12 12 12 11 11 11 11
15 15 14 14 14 14 14 14 14 14 13 13 13 12 12 12 12 12 12 12 12 12 12 12 12 12 12 12 12 12 12 11 11 11 11 11 11 10
15 15 15 15 14 14 14 14 14 13 13 13 13 12 12 12 12 12 12 12 12 11 11 11 12 12 12 12 12 11 11 11 11 11 11 10 10 10
15 15 15 15 15 14 14 14 14 13 13 13 13 13 13 12 12 12 12 11 12 11 11 11 11 11 11 11 11 11 11 11 11 11 10 10 10 10
15 15 15 15 14 14 14 14 14 14 13 13 13 13 13 12 12 12 12 11 11 11 11 11 11 11 11 11 11 11 11 10 10 10 10 10 10 9
14 15 14 14 14 14 14 14 14 13 13 13 13 13 12 12 12 12 12 11 11 11 11 11 11 11 11 10 10 10 10 10 10 10 10 9 9 9
14 14 14 14 14 14 14 14 13 13 13 13 13 13 12 12 12 12 11 11 11 11 11 11 11 10 10 10 10 10 10 9 9 9 9 9 9 9
14 14 14 14 14 14 14 14 13 13 13 13 13 12 12 12 12 12 11 11 11 11 10 10 10 10 10 10 9 9 9 9 9 9 8 8 8 8
14 14 14 14 14 14 14 13 13 13 13 13 12 12 12 12 12 11 11 11 11 10 10 10 10 9 9 9 9 9 8 8 8 8 8 8 7 7
14 14 14 14 14 14 14 13 13 13 13 12 12 12 12 12 12 11 11 11 10 10 10 9 9 9 8 8 8 8 8 8 8 7 7 7 7 7
14 14 14 14 14 13 13 13 13 13 12 12 12 12 12 11 11 11 11 10 10 10 9 9 9 8 8 8 7 8 7 7 7 7 7 7 6 6
14 14 13 13 13 13 13 13 12 12 12 12 11 11 11 11 11 11 10 10 10 9 9 8 8 8 8 7 7 7 7 7 6 6 6 6 6 5
14 13 13 13 13 13 13 12 12 12 12 11 11 11 10 10 10 10 10 9 9 9 9 8 8 8 7 7 7 7 6 6 6 6 5 5 5 5
13 13 13 13 12 12 12 12 12 11 11 11 10 10 10 10 9 9 9 9 8 8 8 8 8 7 7 6 6 6 6 6 5 5 5 5 5 4
13 13 12 12 12 12 11 11 11 11 11 10 10 10 9 9 9 9 8 8 8 7 7 7 7 7 6 6 6 6 5 5 5 5 4 4 4 4
12 12 12 12 11 11 11 10 10 10 10 10 10 9 9 9 8 8 8 8 7 7 7 6 6 6 5 5 5 5 5 4 4 4 4 4 3 3
12 11 11 11 11 11 10 10 10 10 9 9 9 9 8 8 8 8 7 7 7 6 6 6 5 5 5 4 4 4 4 4 4 3 3 3 3 3
11 11 11 10 10 10 10 10 9 9 9 9 9 8 8 8 7 7 7 6 6 5 5 5 5 4 4 4 4 4 4 3 3 3 2 2 2 2
11 11 10 10 10 10 10 9 9 9 9 8 8 8 8 7 7 7 6 6 5 5 5 5 4 4 3 3 3 3 3 3 3 3 2 2 1 1
11 10 10 10 10 9 9 9 9 9 8 8 8 8 7 7 7 6 6 5 5 5 4 4 4 3 3 2 2 2 2 2 2 2 2 2 1 1
Wind_Speed
3 3 2 2 3 2 3 2 3 2 1 1 1 2 5 7 6 6 7 8 8 8 9 10 10 11 11 11 12 12 12 12 12 13 13 13 13 13
3 4 3 3 3 2 2 2 2 3 1 1 1 2 4 5 6 5 6 8 8 8 9 10 10 10 11 11 11 11 11 12 12 12 12 12 12 12
3 4 4 3 3 2 2 2 2 3 3 1 2 2 3 3 4 4 5 5 5 7 8 8 8 9 9 10 10 10 10 10 11 11 11 11 11 11
3 4 4 3 3 3 2 2 2 2 3 3 1 1 2 2 2 2 3 3 4 5 6 6 6 7 7 8 8 8 9 9 10 10 10 10 10 11
3 3 3 4 3 3 2 2 1 2 3 3 2 1 1 2 2 2 2 2 2 3 3 3 4 5 5 6 6 6 7 8 8 8 8 9 9 9
4 4 3 4 3 3 2 2 2 3 2 2 2 1 1 0 1 1 2 2 2 2 2 3 2 2 3 3 4 4 5 5 6 6 7 7 8 8
4 4 5 8 8 5 4 3 3 2 2 2 1 1 0 0 0 1 0 1 2 2 1 1 1 2 2 2 2 2 3 4 5 5 6 6 7 7
4 4 6 6 7 8 8 7 5 3 1 1 1 1 1 1 0 0 0 1 2 2 1 2 1 0 1 1 1 1 1 2 3 4 5 5 6 7
3 3 4 5 6 5 5 4 3 3 2 2 1 1 1 1 1 0 1 0 1 1 1 2 2 1 1 2 3 2 1 1 2 3 5 5 6 7
1 3 4 4 4 4 4 3 2 1 1 2 2 1 1 1 2 2 1 0 1 1 1 1 2 2 1 2 3 3 2 1 1 3 5 6 7 7
1 2 3 4 5 5 4 3 2 1 3 4 4 3 2 2 3 2 1 1 2 2 1 1 2 2 2 1 3 4 4 4 4 4 4 6 7 7
2 2 4 4 5 5 3 2 2 1 1 1 1 0 0 1 1 2 1 1 1 2 2 1 1 2 3 2 1 3 3 5 6 6 7 7 7 5
2 2 2 5 5 4 3 2 2 0 0 1 1 0 0 1 1 1 1 1 1 2 2 1 1 1 1 3 3 2 1 2 3 5 7 7 7 5
2 2 3 6 6 4 3 2 2 2 1 1 0 0 0 1 1 2 1 1 1 1 1 1 0 1 1 3 3 3 3 3 3 3 4 6 7 7
2 5 6 6 6 3 2 2 1 1 0 0 1 1 0 0 1 1 1 1 2 2 3 2 1 1 1 2 3 3 3 4 2 3 3 3 3 4
2 4 6 5 3 2 2 1 1 1 1 1 1 1 0 0 0 0 0 1 1 2 3 4 2 1 2 3 3 4 3 3 3 3 3 4 5 5
5 3 2 2 1 1 1 1 1 1 1 1 1 1 0 0 0 1 0 1 1 2 3 3 4 3 2 2 3 3 3 3 3 3 3 4 4 4
6 3 3 3 2 2 2 2 2 2 2 1 1 1 1 1 1 1 1 1 2 2 2 2 3 3 4 3 2 2 3 4 4 3 3 3 5 5
4 3 3 3 3 2 2 2 2 2 2 2 1 1 1 1 1 1 1 1 2 2 2 1 1 1 3 5 5 3 3 4 3 3 3 3 5 5
2 2 3 3 2 2 2 2 2 2 2 2 2 2 2 2 1 1 1 1 2 2 2 2 1 1 3 4 5 5 5 3 3 4 4 4 4 7
2 2 2 2 2 2 2 2 2 2 2 2 2 2 2 2 2 2 2 2 2 2 3 3 3 3 3 2 4 5 4 7 6 4 4 4 5 5
3 3 2 2 2 2 2 2 1 1 1 2 2 2 2 2 2 2 2 2 2 3 3 3 2 1 1 3 5 6 6 5 7 9 7 5 3 4
3 3 2 2 2 1 1 1 1 1 1 1 1 1 1 2 2 2 2 2 2 3 3 3 2 2 3 4 5 5 6 5 4 4 5 10 11 12
Wind_Direction
77 87 91 78 76 71 77 100 122 107 76 97 81 92 103 93 76 78 75 63 62 60 58 57 56 55 54 53 54 53 51 50 49 48 47 46 46 45
83 75 72 69 70 68 64 41 69 123 113 99 111 119 95 89 81 80 84 72 66 67 65 63 60 57 54 54 52 50 48 47 46 45 43 42 41 41
116 111 102 85 80 69 57 49 52 88 110 90 87 96 92 83 88 93 90 92 72 71 69 64 61 57 54 53 50 46 44 42 40 39 39 38 36 35
99 104 111 105 94 81 62 60 74 90 117 121 95 69 90 92 99 76 77 80 91 77 77 72 65 58 52 48 45 41 39 37 37 37 36 34 33 30
89 95 103 118 120 117 109 85 87 92 103 123 124 75 70 64 55 31 37 57 68 82 84 83 75 63 48 41 40 38 37 35 34 33 31 29 27 25
89 85 80 88 95 106 105 95 98 91 95 103 113 101 78 46 77 27 2 358 2 44 73 116 112 76 52 35 36 37 35 31 28 26 23 20 19 17
112 105 96 94 87 84 90 75 77 82 103 111 114 88 63 26 279 234 341 311 329 18 24 69 139 116 77 32 26 35 37 32 27 21 15 11 8 5
133 134 126 114 108 99 93 87 89 94 105 111 117 141 222 209 207 83 301 9 320 332 18 324 90 101 130 146 136 102 56 27 17 11 5 360 354 349
131 130 122 126 130 125 112 99 78 78 110 132 121 203 190 179 150 341 320 161 225 270 25 313 324 303 171 169 173 164 143 20 12 359 352 347 339 331
80 119 125 122 125 127 130 121 113 85 114 131 148 155 83 112 142 169 199 9 325 345 67 285 305 284 265 183 196 193 193 217 303 324 329 332 331 326
79 73 115 119 126 121 123 133 133 161 139 133 140 139 108 76 82 68 34 36 316 301 293 199 289 306 290 242 228 220 227 241 269 290 301 316 323 324
139 103 100 122 121 118 123 140 145 204 127 112 114 261 115 33 52 120 160 178 262 304 314 36 321 355 329 304 232 232 258 272 275 281 284 294 309 324
157 150 140 142 137 131 133 132 146 88 303 171 175 186 91 84 56 69 107 151 186 251 298 41 338 345 304 301 306 291 284 296 295 299 287 287 296 300
163 147 146 142 135 129 121 105 85 57 11 18 45 43 54 43 38 69 72 88 137 210 309 41 206 285 308 303 300 314 325 322 327 325 318 309 301 303
130 130 138 142 138 130 135 131 112 95 141 222 225 225 180 155 75 46 26 32 6 351 345 347 4 291 266 272 292 306 312 306 324 340 335 330 320 320
140 122 123 126 123 120 108 157 201 208 194 214 219 212 75 48 36 17 338 339 343 323 338 330 315 270 278 275 277 290 294 295 316 322 322 318 322 322
142 124 120 124 135 147 154 168 185 192 219 228 185 180 188 74 340 6 343 322 296 299 316 322 314 293 263 258 282 285 295 301 306 309 314 307 299 308
140 145 165 169 177 188 196 208 197 197 208 203 192 189 197 211 248 303 320 283 278 288 297 311 336 345 342 323 272 287 300 299 302 308 315 310 302 307
143 169 181 187 192 193 196 203 211 207 191 185 191 205 211 216 221 252 271 284 281 284 292 309 356 3 326 310 302 280 284 293 305 308 301 296 294 297
158 174 189 191 191 194 198 201 201 187 180 193 201 213 217 225 241 251 249 259 271 279 289 306 301 265 270 281 288 291 279 281 293 293 293 295 292 300
179 186 186 183 181 181 182 182 181 186 190 191 207 218 221 225 242 250 247 268 267 273 277 275 267 262 269 301 302 300 296 293 294 286 293 306 309 308
173 185 186 178 175 175 178 181 192 195 203 215 227 232 231 228 239 250 257 268 264 266 277 283 292 298 295 283 288 294 301 310 312 309 299 285 279 286
175 175 174 177 180 176 185 189 190 198 200 221 231 235 235 245 249 248 254 260 269 278 294 304 312 301 287 284 288 294 300 306 308 309 301 297 293 292
Height
1563 1563 1564 1564 1565 1565 1565 1566 1566 1566 1567 1567 1566 1565 1563 1561 1559 1558 1556 1554 1553 1551 1550 1549 1548 1547 1546 1545 1544 1543 1542 1542 1541 1540 1539 1538 1537 1536
1563 1563 1564 1564 1564 1565 1565 1566 1566 1566 1566 1567 1566 1565 1564 1562 1561 1559 1557 1556 1554 1553 1551 1550 1549 1548 1547 1546 1545 1545 1544 1543 1542 1541 1540 1539 1538 1537
1563 1563 1564 1564 1564 1565 1565 1565 1566 1566 1566 1567 1567 1566 1565 1563 1562 1560 1559 1557 1556 1554 1553 1552 1551 1550 1549 1548 1547 1546 1545 1544 1542 1541 1540 1539 1538 1537
1563 1563 1563 1564 1564 1565 1565 1565 1566 1566 1566 1566 1566 1566 1565 1564 1563 1561 1560 1559 1557 1556 1555 1554 1552 1551 1550 1549 1548 1547 1545 1544 1543 1542 1540 1539 1538 1537
1562 1563 1563 1564 1564 1565 1565 1565 1565 1566 1566 1566 1566 1566 1566 1565 1564 1563 1561 1560 1559 1557 1556 1555 1554 1552 1551 1550 1549 1547 1546 1545 1543 1542 1540 1539 1538 1536
1562 1562 1563 1564 1564 1564 1565 1565 1565 1565 1566 1566 1566 1566 1565 1565 1564 1563 1562 1561 1559 1558 1557 1555 1554 1553 1552 1551 1549 1548 1546 1544 1543 1542 1540 1539 1537 1536
1562 1562 1563 1563 1564 1564 1564 1565 1565 1565 1565 1565 1565 1565 1565 1564 1564 1563 1562 1561 1560 1559 1557 1556 1554 1553 1552 1551 1549 1548 1546 1544 1543 1541 1540 1538 1536 1535
1561 1562 1562 1563 1564 1564 1564 1564 1565 1565 1565 1565 1565 1564 1564 1564 1563 1563 1562 1560 1559 1559 1558 1556 1555 1553 1552 1550 1549 1547 1546 1544 1542 1540 1539 1537 1535 1533
1561 1562 1562 1563 1563 1563 1564 1564 1564 1564 1565 1564 1564 1564 1563 1563 1562 1562 1561 1560 1559 1558 1557 1555 1554 1552 1551 1550 1548 1546 1545 1543 1541 1539 1537 1535 1533 1531
1560 1561 1562 1562 1562 1563 1563 1563 1563 1563 1563 1563 1563 1563 1563 1562 1562 1561 1560 1559 1558 1557 1556 1554 1552 1551 1550 1549 1547 1545 1544 1542 1540 1538 1535 1533 1531 1529
1560 1560 1561 1561 1562 1562 1562 1562 1562 1562 1563 1562 1562 1562 1561 1561 1560 1560 1558 1557 1556 1555 1554 1553 1551 1549 1548 1547 1545 1544 1542 1540 1538 1536 1533 1531 1529 1526
1558 1559 1559 1560 1560 1561 1561 1561 1561 1561 1561 1561 1561 1560 1560 1559 1559 1558 1557 1556 1554 1553 1552 1551 1549 1547 1545 1544 1543 1541 1539 1537 1535 1533 1531 1528 1526 1524
1556 1556 1557 1558 1558 1559 1559 1559 1559 1559 1559 1559 1558 1558 1558 1557 1556 1555 1555 1554 1553 1551 1551 1549 1547 1545 1544 1542 1540 1539 1537 1535 1532 1530 1528 1526 1523 1521
1553 1554 1555 1556 1556 1556 1556 1557 1557 1557 1557 1557 1556 1555 1555 1554 1554 1553 1552 1552 1551 1550 1548 1547 1545 1543 1541 1539 1537 1535 1534 1532 1529 1527 1525 1522 1520 1518
1551 1552 1553 1553 1554 1554 1554 1554 1554 1554 1554 1554 1553 1553 1552 1552 1551 1551 1550 1549 1548 1547 1545 1544 1542 1540 1538 1536 1534 1532 1530 1528 1526 1524 1521 1519 1516 1514
1548 1549 1550 1550 1551 1551 1551 1551 1551 1551 1551 1551 1550 1550 1550 1549 1548 1547 1546 1545 1544 1543 1542 1541 1539 1537 1535 1533 1531 1529 1527 1525 1523 1520 1517 1515 1513 1510
1545 1545 1546 1547 1547 1547 1548 1548 1548 1548 1548 1547 1547 1546 1546 1546 1545 1544 1543 1542 1541 1539 1538 1537 1536 1534 1532 1530 1527 1525 1523 1521 1519 1516 1513 1510 1509 1506
1541 1541 1542 1543 1543 1544 1544 1544 1544 1544 1544 1544 1544 1543 1542 1542 1541 1541 1540 1539 1537 1536 1535 1533 1532 1529 1528 1526 1525 1522 1520 1518 1515 1513 1510 1506 1503 1502
1537 1538 1538 1539 1540 1540 1541 1541 1541 1541 1541 1540 1540 1539 1539 1538 1537 1537 1536 1535 1534 1533 1531 1530 1528 1526 1523 1521 1520 1520 1517 1513 1511 1508 1506 1503 1500 1497
1533 1534 1535 1535 1536 1537 1537 1537 1537 1537 1537 1537 1536 1536 1535 1534 1534 1533 1532 1531 1530 1529 1527 1526 1524 1522 1521 1519 1516 1514 1513 1510 1507 1504 1501 1499 1496 1493
1530 1531 1531 1532 1533 1533 1534 1534 1534 1534 1533 1533 1532 1532 1531 1530 1530 1529 1528 1527 1526 1525 1523 1522 1521 1519 1517 1515 1512 1509 1508 1506 1504 1501 1497 1494 1490 1487
1527 1528 1528 1529 1530 1530 1530 1531 1531 1530 1530 1529 1529 1528 1527 1527 1526 1525 1524 1523 1522 1521 1519 1518 1517 1515 1512 1510 1507 1505 1503 1501 1499 1497 1494 1492 1488 1483
1524 1525 1525 1526 1526 1527 1527 1527 1527 1527 1526 1526 1525 1524 1524 1523 1522 1521 1520 1519 1518 1517 1515 1513 1512 1510 1508 1506 1504 1501 1499 1496 1494 1491 1489 1488 1485 1482